Home   Weather   Fehmarn (Puttgarden)   Past weeks

Flag for Germany Past Weather in Fehmarn (Puttgarden), Schleswig-Holstein, Germany — Yesterday and Last 2 Weeks

Now
34 °F

Fog.


Feels Like: 27 °F
Forecast: 30 / 33 °F
Wind: 8 mph from West

Location: Westermarkelsdorf

Current Time: Jan 25, 2017 at 2:55:24 am

Latest Report: Jan 25, 2017 at 2:00 am


Visibility: 1 mi

Pressure: 30.44 "Hg

Humidity: 97%

Dew Point: 33 °F

Location of Fehmarn (Puttgarden)Location

Past Weather in Fehmarn (Puttgarden) — Graph

°F

Fehmarn (Puttgarden) Temperature Yesterday

Maximum temperature yesterday: 37 °F (at 6:00 pm)
Minimum temperature yesterday: 34 °F (at 5:00 am)
Average temperature yesterday: 35 °F

High & Low Weather Summary for the Past Weeks

 TemperatureHumidityPressure
High40 °F (Jan 11, 8:00 pm)100% (Jan 21, 11:00 am)30.69 "Hg (Jan 21, 11:00 am)
Low30 °F (Jan 17, 8:00 am)64% (Jan 16, 2:00 pm)29.15 "Hg (Jan 13, 6:00 am)
Average36 °F87%30.11 "Hg
* Reported Jan 10 12:00 am — Jan 25 12:00 am, Fehmarn (Puttgarden), Weather by CustomWeather, © 2017

Note: Actual official high and low records may vary slightly from our data, if they occured in-between our weather recording intervals... More about our weather records

Advertising

Fehmarn (Puttgarden) Weather History for the Previous 24 Hours

Scroll right to see more
 ConditionsComfort  
Time TempWeatherWind HumidityBarometerVisibility
12:00 am
Wed, Jan 25
35 °FFog.8 mph95%30.43 "Hg2 mi
11:00 pm
Tue, Jan 24
35 °FFog.8 mph95%30.42 "Hg2 mi
9:00 pm35 °FLow clouds.9 mph95%30.41 "Hg2 mi
8:00 pm36 °FDrizzle. Low clouds.8 mph95%30.41 "Hg2 mi
6:00 pm37 °FFog.8 mph94%30.39 "Hg2 mi
5:00 pm36 °FFog.7 mph95%30.38 "Hg2 mi
3:00 pm36 °FFog.8 mph95%30.36 "Hg2 mi
2:00 pm36 °FFog.7 mph95%30.35 "Hg2 mi
12:00 pm36 °FFog.7 mph95%30.35 "Hg3 mi
11:00 am36 °FFog.6 mph95%30.34 "Hg2 mi
9:00 am35 °FFog.7 mph97%30.31 "Hg1 mi
8:00 am36 °FFog.7 mph97%30.30 "Hg1 mi
6:00 am34 °FLow clouds.5 mph99%30.27 "Hg1 mi
5:00 am34 °FFog.7 mph97%30.27 "Hg1 mi
3:00 am35 °FFog.7 mph97%30.27 "Hg1 mi
2:00 am34 °FFog.8 mph95%30.27 "Hg1 mi
Weather by CustomWeather, © 2017

See weather overviewHow to use our weather pages